Location: Unspecified
(0.0000°N, 0.0000°E)
Time: 06:10:27
(UTC+00:00)

Tiros 1 despin weight - Pass Details

Date: 06 October 2020
Orbit: 594 x 641 km, 48.2° (Epoch: 28 October)

Event Time Altitude Azimuth Distance (km) Brightness Sun altitude
Rises 17:54:48 0° 309° (NW) 2,914 ? -1.7°
Reaches altitude 10° 17:57:12 10° 302° (WNW) 2,013 ? -2.3°
Maximum altitude 18:01:37 43° 231° (SW) 896 ? -3.4°
Drops below altitude 10° 18:06:03 10° 159° (SSE) 2,028 ? -4.5°
Sets 18:08:29 0° 152° (SSE) 2,938 ? -5.1°
